Погода в Советском

Россия / Республика Дагестан     41°43′36″N   48°19′30″E
В апреле 2022 года жителям России запретили посещать сайт meteo.paraplan.net по решению Генеральной прокуратуры. Аудитория сайта уменьшилась в 10 раз. Владельцы сайта не видят смысла в поддержке погодного сервера в таких условиях. Сайт будет закрыт в октябре.
темп.,
°C
ветер,
м/с
пор.,
м/с
влажн.,
%
обл.,
%
осадки,
мм/ч
давл.,
гПа
погр.,
м
29 сентября, чт
чт2900:00+18сз1160100 0.0 100711
03:00+17зюз1169100 0.0 100911
06:00+17зюз106067 0.0 101011
09:00+23св214767 0.0 1010501
12:00+27ссв66330 0.0 10111199
15:00+24ссв78530 0.0 1012985
18:00+19с11720 0.0 101411
21:00+18з22755 0.0 101616
30 сентября, пт
пт3000:00+18зюз117498 0.0 101612
03:00+17зюз11732 0.0 101712
06:00+17зюз22671 0.0 101812
09:00+24св21390 0.0 1018668
12:00+27св53270 0.0 10181392
15:00+25всв43280 0.0 10181071
18:00+18вюв11514 0.0 101911
21:00+18юз114821 0.0 102012
1 октября, сб
сб100:00+19юз224381 0.0 102015
03:00+18юз224820 0.0 102012
06:00+17з225212 0.0 102011
09:00+24всв22297 0.0 1021638
12:00+28в55205 0.0 10201682
15:00+26в54285 0.0 10191141
18:00+20вюв2248100 0.0 102141
21:00+18ююз114919 0.1 102112
2 октября, вс
вс200:00+17ююз11515 0.0 102011
03:00+16юз11540 0.0 101911
06:00+16юз11565 0.0 101912
09:00+24в32335 0.0 1018546
12:00+27вюв55251 0.0 10151461
15:00+26вюв66314 0.0 10131062
18:00+18в11584 0.0 101312
21:00+16сз226398 0.0 101211
3 октября, пн
пн300:00+15ю1168100 0.0 101011
03:00+14сз016998 0.0 100811
06:00+14з116997 0.0 100811
09:00+20с224627 0.0 1008438
12:00+25ссв213282 0.0 10061069
15:00+25всв644485 0.0 1007960
18:00+18с2275100 0.0 101033
21:00+16сз338474 0.0 101138